"Pseudo-MPEC" for ST26H92

Created 2026 Aug 26 0:35:12 UT using Find_Orb

Click here for an explanation of pseudo-MPECs

 
 Astrometry: 
     ST26H92* C2026 08 25.32828622 53 16.774+21 57 30.77   ~8P8o 18.78GVNEOCPU68
     ST26H92  C2026 08 25.33162722 53 30.886+21 58 00.12   ~8P8o 18.78GVNEOCPU68
     ST26H92  C2026 08 25.34614822 54 32.048+22 00 06.42   ~8P8o 18.80GVNEOCPU74
     ST26H92  C2026 08 25.34842022 54 41.547+22 00 25.59   ~8P8o 18.80GVNEOCPU74

Station data:
(U68) JPL SynTrack Robotic Telescope, Auberry  (N37.070387 W119.412990)
   US/California.  Observers N. Saini, C. Zhai, R. Trahan, M. Zhan, M. Shao.
   0.28-m f/2.2 Schmidt + CCD.
(U74) JPL SynTrack Robotic Telescope 2, Auberry  (N37.070341 W119.412800)
   US/California.  Observers N. Saini, C. Zhai, R. Trahan, M. Zhan, M. Shao.
   0.36-m f/2.2 Schmidt.

Orbital elements:  ST26H92
   Perihelion 2026 Oct 10.779828 +/- 26.2 TT = 18:42:57.1 (JD 2461324.279828)
Epoch 2026 Aug 25.0 TT = JDT 2461277.5   Earth MOID: 0.0008   Ma: 0.0232
M 341.929966390 +/- 17              (J2000 ecliptic)             AutoNEOCP
n   0.386278323 +/- 0.301           Peri.  247.221692 +/- 60
a   1.867250097 +/- 0.971           Node   153.346966 +/- 70
e   0.57996303 +/- 0.254            Incl.   15.376178 +/- 5.5
P   2.552/931.953d         H 26.89  G  0.15   U 11.9  SR
q 0.784314072 +/- 0.0953    Q 2.950186122 +/- 33.1
From 4 observations 2026 Aug. 25 (29.0 min); mean residual 0".90
Residuals in arcseconds: 
260825 U68  1.3-  .12-    260825 U74  1.2+  .26+    
260825 U68  1.4+  .11+    260825 U74  1.3-  .24-    

Ephemerides (geocentric):
Date (UTC) HH   RA             Dec           delta  r     elong  mag " sig PA
---- --------  ------------   ------------  ------ ------ -----  --- --------
2026 08 26 01  00 22 46.776   +23 20 33.56  .00847 1.0166 134.3 18.3 602'  83
2026 08 26 02  00 31 39.088   +23 18 05.82  .00820 1.0162 132.9 18.3 716'  81
2026 08 26 03  00 41 06.607   +23 13 24.36  .00794 1.0159 131.4 18.2 831'  79
2026 08 26 04  00 51 10.815   +23 06 04.17  .00769 1.0155 129.7 18.2 941'  78
2026 08 26 05  01 01 52.827   +22 55 37.70  .00745 1.0152 127.8 18.2  17d  78
2026 08 26 06  01 13 13.245   +22 41 35.36  .00723 1.0148 125.8 18.2  19d  77
2026 08 26 07  01 25 11.994   +22 23 26.47  .00703 1.0145 123.7 18.2  21d  77
2026 08 26 08  01 37 48.156   +22 00 40.51  .00684 1.0142 121.4 18.2  22d  76
2026 08 26 09  01 50 59.819   +21 32 49.00  998617 1.0138 118.9 18.2  24d  76
2026 08 26 10  02 04 43.952   +20 59 27.76  976560 1.0135 116.3 18.2  25d  75
2026 08 26 11  02 18 56.351   +20 20 19.41  957774 1.0131 113.5 18.3  27d  75
2026 08 26 12  02 33 31.660   +19 35 16.05  942453 1.0128 110.6 18.3  28d  75
2026 08 26 13  02 48 23.500   +18 44 21.42  930770 1.0124 107.6 18.4  29d  75
2026 08 26 14  03 03 24.704   +17 47 52.43  922862 1.0121 104.5 18.5  30d  75
2026 08 26 15  03 18 27.637   +16 46 19.42  918827 1.0117 101.4 18.6  31d  75
2026 08 26 16  03 33 24.576   +15 40 25.17  918716 1.0114  98.2 18.7  32d  75
2026 08 26 17  03 48 08.102   +14 31 02.46  922531 1.0111  95.0 18.8  33d  75
2026 08 26 18  04 02 31.451   +13 19 10.64  930222 1.0107  91.9 19.0  34d  74
2026 08 26 19  04 16 28.791   +12 05 51.65  941696 1.0104  88.8 19.1  35d  74
2026 08 26 20  04 29 55.397   +10 52 06.12  956815 1.0100  85.8 19.3  36d  74
2026 08 26 21  04 42 47.719   +09 38 49.97  975410 1.0097  82.9 19.4  37d  74
2026 08 26 22  04 55 03.358   +08 26 51.99  997287 1.0093  80.2 19.6  37d  74
2026 08 26 23  05 06 40.973   +07 16 52.37  .00683 1.0090  77.6 19.8  38d  74
2026 08 27 00  05 17 40.134   +06 09 22.32  .00702 1.0086  75.1 20.0  38d  74
2026 08 27 01  05 28 01.160   +05 04 44.27  .00722 1.0083  72.7 20.2  39d  74
2026 08 27 02  05 37 44.957   +04 03 12.81  .00744 1.0080  70.6 20.4  40d  74
2026 08 27 03  05 46 52.859   +03 04 55.82  .00768 1.0076  68.5 20.6  40d  74
2026 08 27 04  05 55 26.499   +02 09 55.65  .00792 1.0073  66.6 20.8  40d  74
2026 08 27 05  06 03 27.693   +01 18 10.44  .00818 1.0069  64.8 20.9  41d  74
2026 08 27 06  06 10 58.354   +00 29 35.14  .00846 1.0066  63.2 21.1  41d  74
2026 08 27 07  06 18 00.421   -00 15 57.55  .00874 1.0062  61.6 21.3  42d  74
2026 08 27 08  06 24 35.812   -00 58 36.36  .00903 1.0059  60.2 21.5  42d  74
2026 08 27 09  06 30 46.387   -01 38 30.88  .00933 1.0056  58.9 21??  42d  74
2026 08 27 10  06 36 33.923   -02 15 51.13  .00963 1.0052  57.6 21??  42d  74
2026 08 27 11  06 42 00.102   -02 50 47.15  .00994 1.0049  56.5 22??  43d  74
2026 08 27 12  06 47 06.501   -03 23 28.80  .01026 1.0045  55.4 22??  43d  74
2026 08 27 13  06 51 54.589   -03 54 05.61  .01059 1.0042  54.4 22??  43d  74
2026 08 27 14  06 56 25.732   -04 22 46.63  .01092 1.0038  53.5 22??  43d  73
2026 08 27 15  07 00 41.191   -04 49 40.40  .01125 1.0035  52.7 22??  44d  73
2026 08 27 16  07 04 42.127   -05 14 54.90  .01159 1.0032  51.9 22??  44d  73
2026 08 27 17  07 08 29.610   -05 38 37.56  .01193 1.0028  51.1 22??  44d  73
2026 08 27 18  07 12 04.624   -06 00 55.26  .01228 1.0025  50.4 23??  44d  73
2026 08 27 19  07 15 28.070   -06 21 54.37  .01263 1.0021  49.7 23??  44d  73
2026 08 27 20  07 18 40.778   -06 41 40.72  .01298 1.0018  49.1 23??  44d  73
2026 08 27 21  07 21 43.506   -07 00 19.72  .01334 1.0015  48.6 23??  44d  73
2026 08 27 22  07 24 36.951   -07 17 56.28  .01370 1.0011  48.0 23??  45d  73
2026 08 27 23  07 27 21.754   -07 34 34.97  .01406 1.0008  47.5 23??  45d  73
2026 08 28 00  07 29 58.502   -07 50 19.92  .01442 1.0004  47.0 23??  45d  73